CW0641 Weather Reports


time (UTC)temp
F
wind
direction
speed
knots
gust
knots
rain 1hr
in
rain 24hr
in
rain mn
in
humidity
%
barometer
mb
20260503184428 55 262 7.8 16.5 0.00 0.00 0.00 88 1012.6
20260503183926 56 338 8.7 17.4 0.00 0.00 0.00 88 1012.8
20260503183429 56 315 8.7 17.4 0.00 0.00 0.00 88 1012.6
20260503182927 56 328 10.4 19.1 0.00 0.00 0.00 88 1012.8
20260503181923 56 351 8.7 20.9 0.00 0.00 0.00 87 1012.6
20260503181422 56 262 7.8 15.6 0.00 0.00 0.00 87 1012.5
20260503180927 56 235 8.7 17.4 0.00 0.00 0.00 87 1012.4
20260503175921 56 321 10.4 18.2 0.00 0.00 0.00 87 1012.1
20260503175422 56 9 10.4 18.2 0.00 0.00 0.00 87 1012.0
20260503174422 56 323 10.4 17.4 0.00 0.00 0.00 88 1011.8
20260503173919 57 249 10.4 19.1 0.00 0.00 0.00 88 1011.7
20260503173422 57 296 11.3 20.0 0.00 0.00 0.00 87 1011.6
20260503172920 57 338 10.4 20.0 0.00 0.00 0.00 88 1011.5
20260503172421 58 258 10.4 19.1 0.00 0.00 0.00 88 1011.3
20260503171919 58 282 10.4 18.2 0.00 0.00 0.00 88 1011.3
20260503171411 58 270 8.7 18.2 0.00 0.00 0.00 88 1011.4
20260503170916 58 284 8.7 17.4 0.00 0.00 0.00 88 1011.1
20260503170404 58 347 10.4 20.9 0.00 0.00 0.00 87 1010.9
20260503150856 61 280 8.7 15.6 0.00 0.00 0.00 83 1010.6
20260503131316 65 277 14.8 24.3 0.00 0.00 0.00 70 1009.2
20260503130814 65 290 14.8 24.3 0.00 0.00 0.00 71 1009.2
20260503130315 65 333 13.9 24.3 0.00 0.00 0.00 70 1009.0
20260503110759 68 284 13.0 27.8 0.00 0.00 0.00 71 1008.3
20260503110300 68 281 13.0 27.8 0.00 0.00 0.00 70 1008.3
20260503100243 71 289 10.4 20.9 0.00 0.00 0.00 67 1007.8
20260503090224 72 269 10.4 18.2 0.00 0.00 0.00 51 1007.3
20260503081226 72 267 8.7 17.4 0.00 0.00 0.00 48 1007.2
20260503080723 73 304 8.7 17.4 0.00 0.00 0.00 47 1007.1
20260503080218 73 240 8.7 16.5 0.00 0.00 0.00 46 1006.8
20260503072216 73 247 7.8 16.5 0.00 0.00 0.00 44 1006.5
20260503071715 72 250 7.0 14.8 0.00 0.00 0.00 44 1006.3
20260503071216 72 247 7.0 14.8 0.00 0.00 0.00 44 1006.5
20260503070718 72 252 7.8 18.2 0.00 0.00 0.00 45 1006.3
20260503070215 72 286 7.0 18.2 0.00 0.00 0.00 44 1006.4
20260503054704 71 271 6.1 14.8 0.00 0.00 0.00 41 1005.8
20260503054205 71 242 5.2 14.8 0.00 0.00 0.00 42 1005.7
20260503053704 71 310 5.2 12.2 0.00 0.00 0.00 42 1005.8
20260503053206 71 250 4.3 9.6 0.00 0.00 0.00 42 1005.7
20260503052705 71 246 3.5 10.4 0.00 0.00 0.00 43 1005.8
20260503052206 70 265 3.5 10.4 0.00 0.00 0.00 44 1005.7
20260503051706 70 281 4.3 11.3 0.00 0.00 0.00 44 1005.6
20260503051206 69 244 5.2 11.3 0.00 0.00 0.00 45 1005.4
20260503050705 69 245 5.2 11.3 0.00 0.00 0.00 46 1005.4
20260503050207 69 273 5.2 11.3 0.00 0.00 0.00 47 1005.4
20260503045708 69 272 5.2 11.3 0.00 0.00 0.00 48 1005.4
20260503045205 68 271 4.3 11.3 0.00 0.00 0.00 48 1005.4
20260503044705 68 229 4.3 8.7 0.00 0.00 0.00 50 1005.4
20260503044207 67 257 3.5 8.7 0.00 0.00 0.00 51 1005.3
20260503043706 67 229 4.3 8.7 0.00 0.00 0.00 52 1005.2
20260503043207 66 232 4.3 9.6 0.00 0.00 0.00 53 1005.4
20260503042705 66 246 4.3 11.3 0.00 0.00 0.00 53 1005.3
20260503042207 66 251 5.2 11.3 0.00 0.00 0.00 54 1005.3
20260503041707 65 249 5.2 10.4 0.00 0.00 0.00 54 1005.2
20260503041210 65 248 3.5 9.6 0.00 0.00 0.00 55 1005.2
20260503040706 65 245 4.3 8.7 0.00 0.00 0.00 55 1005.2
20260503035705 65 248 6.1 13.0 0.00 0.00 0.00 52 1005.2
20260503035204 66 258 6.1 10.4 0.00 0.00 0.00 50 1005.2
20260503035016 67 238 5.2 10.4 0.00 0.00 0.00 47 1005.2
20260503034205 67 271 4.3 9.6 0.00 0.00 0.00 43 1005.0
20260503034018 67 219 2.6 8.7 0.00 0.00 0.00 41 1004.9
20260503033205 67 273 1.7 5.2 0.00 0.00 0.00 40 1004.9
20260503032204 66 145 0.9 3.5 0.00 0.00 0.00 40 1004.7
20260503032013 66 163 0.9 4.3 0.00 0.00 0.00 41 1004.5
20260503031202 66 165 0.0 4.3 0.00 0.00 0.00 41 1004.5
20260503031015 66 185 0.0 4.3 0.00 0.00 0.00 41 1004.5
20260503030201 66 135 0.9 2.6 0.00 0.00 0.00 41 1004.5
20260503030011 66 135 1.7 7.0 0.00 0.00 0.00 41 1004.3
20260503025200 65 135 2.6 7.0 0.00 0.00 0.00 42 1004.0
20260503025010 65 130 2.6 7.0 0.00 0.00 0.00 44 1004.0
20260503024200 64 137 2.6 7.0 0.00 0.00 0.00 47 1004.0
20260503024009 63 142 2.6 6.1 0.00 0.00 0.00 49 1004.0
20260503023155 63 132 1.7 4.3 0.00 0.00 0.00 50 1004.0
20260503023007 63 134 1.7 4.3 0.00 0.00 0.00 51 1004.0
20260503022159 63 137 0.9 2.6 0.00 0.00 0.00 50 1004.2
20260503022006 63 138 0.9 2.6 0.00 0.00 0.00 50 1004.2
20260503021153 63 110 0.9 3.5 0.00 0.00 0.00 49 1004.0
20260503021002 63 110 0.9 3.5 0.00 0.00 0.00 49 1003.9
20260503020152 64 336 0.0 2.6 0.00 0.00 0.00 49 1003.9
20260503015643 64 331 0.9 2.6 0.00 0.00 0.00 48 1003.9
20260503014625 65 330 0.9 3.5 0.00 0.00 0.00 46 1004.2
20260503014127 65 329 1.7 4.3 0.00 0.00 0.00 45 1004.0
20260503013624 65 331 1.7 4.3 0.00 0.00 0.00 44 1004.2
20260503013124 66 330 0.9 3.5 0.00 0.00 0.00 43 1004.3
20260503012621 66 329 0.9 2.6 0.00 0.00 0.00 43 1004.4
20260503012111 66 329 1.7 6.1 0.00 0.00 0.00 42 1004.4
20260503011613 67 342 2.6 6.1 0.00 0.00 0.00 41 1004.5
20260503011114 67 317 2.6 6.1 0.00 0.00 0.00 40 1004.7
20260503010615 67 337 1.7 6.1 0.00 0.00 0.00 39 1004.7
20260503010113 68 303 1.7 7.0 0.00 0.00 0.00 38 1004.8
20260503005610 68 275 3.5 12.2 0.00 0.00 0.00 37 1004.9
20260503005105 68 237 4.3 12.2 0.00 0.00 0.00 37 1005.0
20260503004604 68 238 3.5 10.4 0.00 0.00 0.00 36 1005.2
20260503004107 68 261 4.3 10.4 0.00 0.00 0.00 36 1005.2
20260503003608 68 263 2.6 10.4 0.00 0.00 0.00 38 1005.2
20260503003106 69 212 0.9 3.5 0.00 0.00 0.00 37 1004.9
20260503002606 69 182 0.0 2.6 0.00 0.00 0.00 36 1004.8
20260503001105 70 148 1.7 4.3 0.00 0.00 0.00 35 1005.0
20260503000108 70 128 2.6 6.1 0.00 0.00 0.00 35 1004.8
20260502235104 70 129 1.7 7.0 0.00 0.00 0.00 36 1005.0
20260502234603 70 136 1.7 3.5 0.00 0.00 0.00 36 1005.1
20260502234108 70 134 1.7 3.5 0.00 0.00 0.00 36 1005.2
20260502233107 70 143 0.9 6.1 0.00 0.00 0.00 35 1005.6
20260502232606 70 142 2.6 7.0 0.00 0.00 0.00 34 1005.4
20260502232105 70 119 3.5 8.7 0.00 0.00 0.00 34 1005.1
20260502231104 70 129 2.6 7.0 0.00 0.00 0.00 35 1005.1
20260502230604 70 135 2.6 7.0 0.00 0.00 0.00 35 1005.0
20260502225105 70 137 0.9 6.1 0.00 0.00 0.00 36 1005.2
20260502224604 70 119 0.9 2.6 0.00 0.00 0.00 35 1005.4
20260502224105 70 119 0.9 2.6 0.00 0.00 0.00 35 1005.4
20260502223559 70 119 0.9 2.6 0.00 0.00 0.00 34 1005.4
20260502223057 70 121 1.7 4.3 0.00 0.00 0.00 34 1005.6
20260502222554 70 128 1.7 5.2 0.00 0.00 0.00 34 1005.6
20260502222057 71 132 1.7 6.1 0.00 0.00 0.00 34 1005.8
20260502221557 70 127 2.6 6.1 0.00 0.00 0.00 34 1005.9
20260502221052 70 76 3.5 7.8 0.00 0.00 0.00 34 1005.9
20260502220044 70 132 3.5 7.0 0.00 0.00 0.00 35 1006.0
20260502215547 70 134 3.5 7.0 0.00 0.00 0.00 36 1006.2
20260502215045 70 132 2.6 7.0 0.00 0.00 0.00 36 1006.2
20260502214544 70 138 1.7 3.5 0.00 0.00 0.00 36 1006.3
20260502214042 69 134 1.7 3.5 0.00 0.00 0.00 36 1006.3
20260502213539 69 113 1.7 3.5 0.00 0.00 0.00 36 1006.3
20260502213043 69 128 1.7 2.6 0.00 0.00 0.00 37 1006.4
20260502212540 69 128 1.7 3.5 0.00 0.00 0.00 38 1006.4
20260502212036 69 128 1.7 3.5 0.00 0.00 0.00 38 1006.4
20260502211521 69 126 0.9 2.6 0.00 0.00 0.00 39 1006.3
20260502211014 68 128 0.9 2.6 0.00 0.00 0.00 39 1006.3
20260502205505 68 117 1.7 3.5 0.00 0.00 0.00 39 1006.4
20260502205006 68 131 0.9 3.5 0.00 0.00 0.00 40 1006.4
20260502204505 68 119 0.9 2.6 0.00 0.00 0.00 40 1006.5
20260502203957 68 119 0.9 2.6 0.00 0.00 0.00 41 1006.6
20260502203456 68 119 0.0 2.6 0.00 0.00 0.00 41 1006.8
20260502202956 69 119 0.0 1.7 0.00 0.00 0.00 40 1007.0
20260502202456 69 119 0.0 2.6 0.00 0.00 0.00 40 1006.8
20260502201955 69 119 0.9 2.6 0.00 0.00 0.00 39 1006.8
20260502201456 69 119 0.9 3.5 0.00 0.00 0.00 39 1006.8
20260502200955 69 119 0.9 3.5 0.00 0.00 0.00 39 1006.8
20260502195951 69 123 0.9 3.5 0.00 0.00 0.00 39 1007.0
20260502194953 69 119 0.0 2.6 0.00 0.00 0.00 39 1007.1
20260502194446 69 121 0.0 2.6 0.00 0.00 0.00 39 1007.2
20260502193941 69 121 0.0 1.7 0.00 0.00 0.00 38 1007.2
20260502191922 69 121 0.9 3.5 0.00 0.00 0.00 38 1007.4
20260502185404 69 117 0.9 2.6 0.00 0.00 0.00 37 1007.5
20260502184904 69 117 0.9 3.5 0.00 0.00 0.00 37 1007.7